Regional Weather Roundup
Issued by NWS Newport/Morehead, NC

Current Version | Previous Version | Graphics & Text | Print | Product List | Glossary Off
Versions: 1 2 3 4 5 6 7 8 9 10 11 12 13 14 15 16 17 18 19 20 21 22 23 24 25 26 27 28 29 30 31 32 33 34 35 36 37 38 39 40 41 42 43 44 45 46 47 48 49 50

000
ASUS42 KMHX 271225
RWRMHX
WEATHER ROUNDUP FOR EASTERN NORTH CAROLINA
NATIONAL WEATHER SERVICE NEWPORT/MOREHEAD CITY NC
800 AM EDT THU AUG 27 2015

NOTE: "FAIR" INDICATES FEW OR NO CLOUDS BELOW 12,000 FEET
WITH NO SIGNIFICANT WEATHER AND/OR OBSTRUCTIONS TO VISIBILITY

NCZ015>017-031-032-045>047-102-103-271300-
NORTH COAST

CITY           SKY/WX    TMP DP  RH WIND       PRES   REMARKS
EDENTON        CLOUDY    72  63  73 N5        30.05S
ELIZABETH CITY CLOUDY    74  65  73 N8        30.06R
KITTY HAWK     CLOUDY    77  66  69 NE7       30.03R
MANTEO         CLOUDY    76  68  74 NE16      30.03S

$$

NCZ045>047-081-094-103-104-271300-
CENTRAL COAST

CITY           SKY/WX    TMP DP  RH WIND       PRES   REMARKS
FRISCO         CLOUDY    75  73  93 NE7       30.00R
SWANQUARTER    NOT AVBL

$$

NCZ095-097-098-100-101-271300-
SOUTHERN COAST

CITY           SKY/WX    TMP DP  RH WIND       PRES   REMARKS
BEAUFORT       LGT RAIN  73  73 100 N9        29.99F
CEDAR ISLAND   NOT AVBL
JACKSONVILLE   TSTM      70  68  93 N13       30.01R
PINEY ISLAND   CLOUDY   N/A N/A N/A E14       30.00S
WILMINGTON     CLOUDY    73  71  93 N7        29.99R


$$

NCZ011>013-027>030-043-044-078>080-089-090>093-098-271300-
COASTAL PLAIN

CITY           SKY/WX    TMP DP  RH WIND       PRES   REMARKS
AHOSKIE        CLOUDY    68  62  79 N6        30.07R
CLINTON        CLOUDY    73  67  84 NE8       30.03R
ELIZABETHTOWN  CLOUDY    72  71  96 CALM      30.02R
GOLDSBORO      CLOUDY    70  66  88 NE13      30.03R
GREENVILLE     CLOUDY    70  64  83 NE9       30.06S
HAVELOCK       CLOUDY    75  72  90 NE7G18    30.01R
KENANSVILLE      N/A     70  68  94 CALM      30.03R
KINSTON        CLOUDY    72  66  83 N8        30.04R
NEW BERN       CLOUDY    73  70  90 NE6       30.02R
RICHLANDS      CLOUDY    70  64  83 NW5       30.01F
ROCKY MOUNT    CLOUDY    72  60  66 NE13      30.06R
WASHINGTON     CLOUDY    72  64  77 N8        30.04R
WHITEVILLE     CLOUDY    72  70  92 NE8       29.98F

$$

AMZ130-135-150-152-154-156-158-170-250-252-270-ANZ085-086-088-633-658-670-271300-
MARINE OBSERVATIONS

STATION/POSITION TIME  TEMP    WIND        PRES    WAVE   SWELL
                       AIR SEA DIR/SP/G            HT/PER HT/PER
                 (UTC) (F)     (DEG/KT/KT) (MB)    (FT/S) (FT/S)
CHESAPEAKE LIGHT 1200   75      50/ 19/ 20 1018.5
64 E VA BEACH    1150   78 80   40/ 16/ 19 1016.7    4/ 5   2/11
DUCK             1200   78 79   40/ 20/ 23 1016.5
2 E DUCK         1111      79                N/A     5/ 5   2/11
OREGON INLET     1200   76 79   40/ 13/ 16 1016.9
13E OREGON INLT  1200      80                N/A     5/ 5   2/11
HATTERAS CG      1200   78 82   40/ 10/ 16 1015.3
DIAMOND BUOY     1150   81 82   60/ 14/ 17 1015.6    4/10   3/10
CAPE LOOKOUT     1200   77      20/  5/  5 1015.2
BEAUFORT LAB     1200   74 81   20/  7/  9 1014.9
30 SE NEW RVR IN 1108   77 82   80/  2/  4 1015.5
30 SE NEW RVR IN 1125      82                N/A     3/11   2/11
27 SE WRIGHTSVLE 1200   76 82   70/  8/ 10   N/A
5 SE WRIGHTSVLE  NOT AVBL
225 S CAPE HAT   1150   83 84  190/  6/  8 1014.5    4/ 9   3/ 9
41 SE CHARLESTON 1150   79 84  130/  8/ 10 1012.9    2/10   2/10

$$


USA.gov is the U.S. government's official web portal to all federal, state and local government web resources and services.